Weather History for San Diego Montgomery, CA

Change the Weather History Date:

Saturday, October 5, 2013

  Actual Average Record
Temperature  
Mean Temperature 72 °F -  
Max Temperature 90 °F 74 °F 91 °F (2014)
Min Temperature 57 °F 58 °F 54 °F (1998)
Cooling Degree Days 7    
Growing Degree Days 22 (Base 50)    
Moisture  
Dew Point 31 °F    
Average Humidity 30    
Maximum Humidity 90    
Minimum Humidity 5    
Precipitation  
Precipitation 0.00 in - - ()
Sea Level Pressure  
Sea Level Pressure 30.04 in    
Wind  
Wind Speed 4 mph (NW)    
Max Wind Speed 12 mph    
Max Gust Speed -    
Visibility 10 miles    
Events      
Averages and records for this station are not official NWS values.
T = Trace of Precipitation, MM = Missing Value Source: NWS Daily Summary

Daily Weather History Graph

Daily Weather History Graph

Search for Another Location

Airport:

Trip Planner

Search our weather history database for the weather conditions in past years. The results will help you decide how hot, cold, wet, or windy it might be!

Date:

Astronomy

Oct. 05, 2013 Rise Set
Actual Time 6:45 AM PDT 6:27 PM PDT
Civil Twilight 6:21 AM PDT 6:52 PM PDT
Nautical Twilight 5:52 AM PDT 7:20 PM PDT
Astronomical Twilight 5:23 AM PDT 7:49 PM PDT
Moon 7:25 AM PDT (10/5) 6:54 PM PDT (10/5)
Length of Visible Light 12h 31m
Length of Day
11h 41m
New Moon, 1% of the Moon is Illuminated
Oct 5
New Moon
Oct 11
First Quarter
Oct 18
Full
Oct 26
Last Quarter
Nov 3
New

Hourly Weather History & Observations

Time (PDT) Temp. Dew Point Humidity Pressure Visibility Wind Dir Wind Speed Gust Speed Precip Events Conditions
12:53 AM 61.0 °F 57.9 °F 90% 30.01 in 7.0 mi North 5.8 mph - N/A   Clear
1:53 AM 61.0 °F 57.9 °F 90% 30.01 in 7.0 mi North 3.5 mph - N/A   Clear
2:53 AM 60.1 °F 51.1 °F 72% 30.01 in 10.0 mi Calm Calm - N/A   Clear
3:53 AM 57.9 °F 42.1 °F 56% 30.02 in 10.0 mi Calm Calm - N/A   Clear
4:53 AM 59.0 °F 35.1 °F 41% 30.02 in 10.0 mi Calm Calm - N/A   Clear
5:53 AM 63.0 °F 27.0 °F 26% 30.02 in 10.0 mi ENE 3.5 mph - N/A   Clear
6:53 AM 59.0 °F 28.9 °F 32% 30.04 in 10.0 mi Calm Calm - N/A   Clear
7:53 AM 66.0 °F 34.0 °F 30% 30.06 in 10.0 mi Calm Calm - N/A   Clear
8:53 AM 75.9 °F 21.9 °F 13% 30.07 in 10.0 mi North 3.5 mph - N/A   Clear
9:53 AM 80.1 °F 12.0 °F 8% 30.09 in 10.0 mi SSW 3.5 mph - N/A   Clear
10:53 AM 84.0 °F 10.9 °F 6% 30.08 in 10.0 mi Variable 5.8 mph - N/A   Clear
11:53 AM 86.0 °F 8.1 °F 5% 30.06 in 10.0 mi WNW 3.5 mph - N/A   Clear
12:53 PM 87.1 °F 21.9 °F 9% 30.04 in 10.0 mi WSW 10.4 mph - N/A   Clear
1:53 PM 87.1 °F 18.0 °F 8% 30.02 in 10.0 mi WSW 11.5 mph - N/A   Clear
2:53 PM 87.1 °F 19.9 °F 8% 30.02 in 10.0 mi West 10.4 mph - N/A   Clear
3:53 PM 84.0 °F 28.0 °F 13% 30.01 in 10.0 mi WNW 11.5 mph - N/A   Clear
4:53 PM 81.0 °F 25.0 °F 13% 30.02 in 10.0 mi WNW 10.4 mph - N/A   Clear
5:53 PM 79.0 °F 21.0 °F 12% 30.02 in 10.0 mi NW 9.2 mph - N/A   Clear
6:53 PM 75.9 °F 30.0 °F 19% 30.03 in 10.0 mi NNW 9.2 mph - N/A   Clear
7:53 PM 72.0 °F 34.0 °F 25% 30.04 in 10.0 mi North 5.8 mph - N/A   Clear
8:53 PM 71.1 °F 39.0 °F 31% 30.05 in 10.0 mi Calm Calm - N/A   Clear
9:53 PM 68.0 °F 39.0 °F 35% 30.06 in 10.0 mi Calm Calm - N/A   Clear
10:53 PM 66.0 °F 37.9 °F 36% 30.06 in 10.0 mi Calm Calm - N/A   Clear
11:53 PM 64.0 °F 34.0 °F 33% 30.06 in 10.0 mi Calm Calm - N/A   Clear